Total_Precipitation_Accumulation
0.14 0.14 0.12 0.11 0.10 0.08 0.06 0.06 0.05 0.04 0.03 0.02 0.01 0.01 0.01 0.01 0.01 0.02 0.02 0.03 0.03 0.04 0.05 0.06 0.07 0.07 0.08 0.07 0.07 0.08 0.09 0.14 0.18 0.09 0.04 0.04 0.07 0.10 0.12 0.16 0.15 0.14 0.12
0.10 0.08 0.07 0.06 0.05 0.04 0.03 0.03 0.02 0.02 0.01 0.01 0.01 0.01 0.01 0.01 0.02 0.02 0.03 0.03 0.05 0.05 0.05 0.05 0.05 0.06 0.08 0.07 0.07 0.07 0.08 0.13 0.21 0.20 0.12 0.09 0.10 0.12 0.16 0.17 0.12 0.10 0.13
0.06 0.05 0.04 0.04 0.03 0.02 0.02 0.01 0.01 0.02 0.02 0.01 0.01 0.01 0.01 0.01 0.02 0.03 0.04 0.04 0.04 0.03 0.03 0.04 0.04 0.05 0.06 0.07 0.08 0.09 0.11 0.14 0.21 0.24 0.17 0.13 0.11 0.10 0.17 0.19 0.18 0.21 0.13
0.04 0.04 0.04 0.04 0.03 0.03 0.02 0.02 0.02 0.02 0.01 0.01 0.01 0.01 0.01 0.02 0.02 0.02 0.02 0.01 0.01 0.01 0.02 0.03 0.04 0.06 0.09 0.12 0.11 0.12 0.16 0.18 0.20 0.22 0.18 0.14 0.12 0.12 0.22 0.29 0.27 0.21 0.17
0.05 0.05 0.05 0.04 0.04 0.03 0.03 0.03 0.02 0.02 0.02 0.01 0.02 0.01 0.01 0.01 0.01 0.00 0.00 0.00 0.01 0.01 0.02 0.03 0.04 0.06 0.12 0.14 0.15 0.16 0.20 0.23 0.24 0.27 0.25 0.19 0.15 0.18 0.26 0.31 0.29 0.20 0.15
0.10 0.09 0.08 0.07 0.06 0.05 0.04 0.04 0.03 0.03 0.02 0.02 0.01 0.01 0.01 0.00 0.00 0.00 0.00 0.00 0.01 0.02 0.03 0.04 0.04 0.05 0.07 0.08 0.10 0.14 0.21 0.27 0.31 0.35 0.32 0.26 0.19 0.24 0.33 0.37 0.36 0.31 0.22
0.15 0.13 0.12 0.10 0.09 0.07 0.04 0.03 0.03 0.02 0.01 0.01 0.01 0.01 0.01 0.01 0.00 0.00 0.00 0.00 0.02 0.05 0.07 0.07 0.05 0.05 0.09 0.11 0.10 0.09 0.10 0.17 0.31 0.44 0.43 0.31 0.28 0.33 0.45 0.47 0.40 0.36 0.30
0.19 0.17 0.13 0.10 0.08 0.05 0.03 0.02 0.01 0.01 0.01 0.01 0.01 0.02 0.03 0.02 0.00 0.00 0.00 0.01 0.03 0.05 0.06 0.07 0.10 0.12 0.11 0.09 0.07 0.07 0.10 0.19 0.30 0.36 0.41 0.37 0.38 0.43 0.51 0.52 0.45 0.38 0.28
0.16 0.12 0.08 0.06 0.05 0.02 0.01 0.01 0.01 0.01 0.02 0.02 0.01 0.02 0.04 0.04 0.01 0.00 0.00 0.01 0.02 0.03 0.03 0.05 0.08 0.11 0.10 0.10 0.10 0.12 0.15 0.22 0.28 0.40 0.46 0.52 0.57 0.56 0.51 0.47 0.48 0.46 0.38
0.07 0.05 0.03 0.03 0.02 0.01 0.01 0.01 0.01 0.02 0.02 0.02 0.02 0.03 0.05 0.06 0.02 0.00 0.01 0.02 0.03 0.02 0.02 0.04 0.07 0.09 0.10 0.10 0.11 0.17 0.23 0.29 0.42 0.58 0.68 0.73 0.67 0.60 0.55 0.51 0.53 0.55 0.53
0.03 0.03 0.03 0.02 0.01 0.01 0.01 0.02 0.02 0.02 0.04 0.04 0.04 0.04 0.06 0.04 0.02 0.00 0.01 0.03 0.05 0.05 0.07 0.10 0.13 0.13 0.14 0.11 0.12 0.21 0.33 0.44 0.63 0.84 0.83 0.67 0.52 0.43 0.41 0.42 0.44 0.49 0.54
0.03 0.03 0.03 0.02 0.01 0.01 0.03 0.03 0.03 0.04 0.05 0.05 0.05 0.05 0.06 0.05 0.03 0.01 0.00 0.01 0.03 0.08 0.14 0.16 0.18 0.19 0.17 0.16 0.21 0.32 0.43 0.61 0.77 0.85 0.73 0.54 0.42 0.36 0.33 0.32 0.33 0.36 0.40
0.05 0.05 0.04 0.03 0.01 0.01 0.03 0.03 0.04 0.05 0.04 0.05 0.05 0.05 0.05 0.06 0.04 0.01 0.01 0.01 0.03 0.08 0.16 0.22 0.24 0.23 0.24 0.31 0.40 0.52 0.60 0.69 0.78 0.72 0.56 0.47 0.42 0.35 0.31 0.29 0.28 0.30 0.32
0.09 0.07 0.07 0.05 0.03 0.02 0.03 0.02 0.03 0.04 0.04 0.05 0.05 0.05 0.06 0.06 0.05 0.04 0.03 0.04 0.06 0.10 0.15 0.26 0.36 0.38 0.42 0.49 0.56 0.63 0.67 0.74 0.72 0.56 0.44 0.39 0.35 0.31 0.29 0.27 0.26 0.27 0.29
0.09 0.08 0.07 0.04 0.03 0.04 0.04 0.02 0.02 0.03 0.01 0.02 0.04 0.04 0.07 0.07 0.06 0.07 0.08 0.09 0.12 0.15 0.17 0.26 0.34 0.40 0.45 0.50 0.50 0.55 0.58 0.57 0.56 0.48 0.40 0.34 0.31 0.29 0.28 0.27 0.25 0.23 0.26
0.06 0.07 0.06 0.04 0.04 0.05 0.06 0.07 0.02 0.00 0.00 0.01 0.02 0.03 0.04 0.06 0.05 0.05 0.07 0.10 0.14 0.18 0.20 0.31 0.43 0.51 0.56 0.57 0.54 0.54 0.55 0.51 0.47 0.44 0.41 0.35 0.31 0.29 0.29 0.27 0.25 0.24 0.26
0.04 0.05 0.05 0.05 0.05 0.05 0.07 0.12 0.14 0.08 0.02 0.01 0.01 0.03 0.04 0.05 0.05 0.04 0.06 0.10 0.13 0.16 0.20 0.34 0.50 0.64 0.67 0.61 0.55 0.53 0.57 0.57 0.53 0.48 0.40 0.36 0.31 0.28 0.25 0.24 0.24 0.23 0.24
0.04 0.05 0.04 0.06 0.05 0.04 0.06 0.09 0.14 0.16 0.13 0.10 0.05 0.03 0.04 0.06 0.08 0.07 0.08 0.09 0.11 0.15 0.24 0.39 0.52 0.60 0.62 0.63 0.57 0.54 0.57 0.59 0.55 0.47 0.40 0.36 0.31 0.25 0.22 0.22 0.22 0.20 0.18
0.03 0.05 0.04 0.03 0.03 0.03 0.05 0.06 0.07 0.09 0.12 0.13 0.10 0.06 0.06 0.08 0.11 0.12 0.12 0.10 0.14 0.21 0.29 0.37 0.46 0.49 0.47 0.49 0.48 0.47 0.50 0.54 0.50 0.42 0.37 0.34 0.29 0.23 0.22 0.20 0.17 0.14 0.13
0.02 0.01 0.01 0.02 0.02 0.03 0.03 0.04 0.05 0.06 0.10 0.12 0.10 0.07 0.08 0.10 0.14 0.16 0.14 0.12 0.13 0.19 0.26 0.34 0.41 0.39 0.37 0.36 0.33 0.32 0.35 0.37 0.35 0.33 0.30 0.27 0.25 0.23 0.20 0.16 0.14 0.12 0.11
0.01 0.01 0.01 0.01 0.02 0.02 0.01 0.02 0.02 0.04 0.06 0.09 0.08 0.08 0.12 0.13 0.18 0.22 0.24 0.23 0.22 0.22 0.23 0.25 0.29 0.33 0.32 0.29 0.25 0.22 0.23 0.23 0.24 0.25 0.25 0.25 0.22 0.19 0.15 0.11 0.09 0.07 0.07
0.00 0.01 0.01 0.01 0.01 0.01 0.01 0.00 0.00 0.02 0.03 0.05 0.07 0.07 0.12 0.13 0.16 0.20 0.26 0.31 0.31 0.29 0.25 0.23 0.23 0.26 0.29 0.28 0.22 0.18 0.17 0.18 0.19 0.22 0.24 0.23 0.20 0.15 0.11 0.07 0.05 0.04 0.03
0.00 0.00 0.00 0.00 0.00 0.00 0.00 0.00 0.00 0.00 0.01 0.04 0.06 0.07 0.09 0.12 0.15 0.19 0.24 0.29 0.32 0.31 0.26 0.22 0.22 0.25 0.27 0.27 0.23 0.17 0.14 0.14 0.15 0.18 0.23 0.23 0.18 0.13 0.08 0.05 0.04 0.03 0.02
0.00 0.00 0.00 0.00 0.00 0.00 0.00 0.00 0.00 0.00 0.00 0.01 0.03 0.05 0.08 0.11 0.13 0.17 0.21 0.25 0.29 0.30 0.29 0.27 0.26 0.26 0.25 0.24 0.21 0.13 0.10 0.11 0.12 0.14 0.18 0.20 0.16 0.12 0.07 0.05 0.03 0.03 0.02
0.00 0.00 0.00 0.00 0.00 0.00 0.00 0.00 0.00 0.00 0.00 0.00 0.01 0.02 0.04 0.06 0.09 0.11 0.15 0.18 0.22 0.25 0.25 0.24 0.24 0.22 0.20 0.17 0.14 0.10 0.09 0.11 0.12 0.12 0.14 0.15 0.12 0.10 0.07 0.05 0.04 0.03 0.02
0.00 0.00 0.00 0.00 0.00 0.00 0.00 0.00 0.00 0.00 0.00 0.00 0.01 0.01 0.02 0.02 0.04 0.06 0.08 0.09 0.12 0.16 0.19 0.20 0.20 0.17 0.12 0.08 0.07 0.07 0.07 0.05 0.05 0.06 0.10 0.13 0.11 0.09 0.08 0.07 0.04 0.03 0.02